This is the latest recevied weather packets stored in our database for station/object 9W2XPF-13. If no packets are shown the sender has not sent any weather packets the latest 10 day(s).
| Time | Temp. | Humidity | Pressure | Rain* | Wind** | Luminosity | Snow |
|---|---|---|---|---|---|---|---|
| 1777183562 | 32.78° C | 73% | 1007.3 hPa | 0 mm | - | - | - |
| 1777183442 | 32.78° C | 73% | 1007.3 hPa | 0 mm | - | - | - |
| 1777183322 | 32.22° C | 74% | 1007 hPa | 0 mm | - | - | - |
| 1777183202 | 32.22° C | 74% | 1007.2 hPa | 0 mm | - | - | - |
| 1777183082 | 32.22° C | 73% | 1007.1 hPa | 0 mm | - | - | - |
| 1777182962 | 32.22° C | 73% | 1007.2 hPa | 0 mm | - | - | - |
| 1777182842 | 31.67° C | 75% | 1007.1 hPa | 0 mm | - | - | - |
| 1777182722 | 31.67° C | 75% | 1007.3 hPa | 0 mm | - | - | - |
| 1777182602 | 31.67° C | 73% | 1007.2 hPa | 0 mm | - | - | - |
| 1777182482 | 31.67° C | 72% | 1007.3 hPa | 0 mm | - | - | - |
| 1777182362 | 31.11° C | 72% | 1007.3 hPa | 0 mm | - | - | - |
| 1777182242 | 31.11° C | 74% | 1007.5 hPa | 0 mm | - | - | - |
| 1777182122 | 30.56° C | 77% | 1007.4 hPa | 0 mm | - | - | - |
| 1777182002 | 30.56° C | 79% | 1007.7 hPa | 0 mm | - | - | - |
| 1777181882 | 30.56° C | 79% | 1007.8 hPa | 0 mm | - | - | - |
| 1777181762 | 31.11° C | 78% | 1007.7 hPa | 0 mm | - | - | - |
| 1777181642 | 31.67° C | 76% | 1008 hPa | 0 mm | - | - | - |
| 1777181522 | 31.67° C | 73% | 1008.2 hPa | 0 mm | - | - | - |
| 1777181402 | 32.22° C | 69% | 1007.7 hPa | 0 mm | - | - | - |
| 1777181282 | 32.22° C | 72% | 1007.9 hPa | 0 mm | - | - | - |
| 1777181162 | 32.22° C | 72% | 1007.9 hPa | 0 mm | - | - | - |
| 1777181042 | 32.22° C | 72% | 1008 hPa | 0 mm | - | - | - |
| 1777180922 | 32.78° C | 70% | 1008 hPa | 0 mm | - | - | - |
| 1777180802 | 32.78° C | 70% | 1007.9 hPa | 0 mm | - | - | - |
| 1777180682 | 33.33° C | 69% | 1008 hPa | 0 mm | - | - | - |
* Rain latest hour (hover to see other rain measurements)
** Current wind speed in m/s (hover to see current wind gust speed)